Time,TemperatureF,DewpointF,PressureIn,WindDirection,WindDirectionDegrees,WindSpeedMPH,WindSpeedGustMPH,Humidity,HourlyPrecipIn,Conditions,Clouds,dailyrainin,SoftwareType,DateUTC
2013-08-11 00:02:00,80.1,75.6,30.04,SSW,196,0.0,0.0,86,0.00,,,0.00,meteohub,2013-08-11 05:02:00,
2013-08-11 00:07:00,80.1,75.6,30.04,SSW,196,0.0,0.0,86,0.00,,,0.00,meteohub,2013-08-11 05:07:00,
2013-08-11 00:12:00,79.9,75.4,30.04,SSW,196,0.0,0.0,86,0.00,,,0.00,meteohub,2013-08-11 05:12:00,
2013-08-11 00:17:00,80.1,75.6,30.04,SSW,196,0.0,0.0,86,0.00,,,0.00,meteohub,2013-08-11 05:17:00,
2013-08-11 00:22:00,80.1,75.6,30.04,SSW,196,0.0,0.0,86,0.00,,,0.00,meteohub,2013-08-11 05:22:00,
2013-08-11 00:27:00,80.1,75.6,30.05,SSW,196,0.0,0.0,86,0.00,,,0.00,meteohub,2013-08-11 05:27:00,
2013-08-11 00:32:00,79.9,75.7,30.05,SSW,196,0.0,0.0,87,0.00,,,0.00,meteohub,2013-08-11 05:32:00,
2013-08-11 00:37:00,79.7,75.6,30.05,SSW,196,0.0,0.0,87,0.00,,,0.00,meteohub,2013-08-11 05:37:00,
2013-08-11 00:43:00,79.5,75.4,30.04,SSW,196,0.0,0.0,87,0.00,,,0.00,meteohub,2013-08-11 05:43:00,
2013-08-11 00:48:00,79.5,75.4,30.04,SSW,196,0.0,0.0,87,0.00,,,0.00,meteohub,2013-08-11 05:48:00,
2013-08-11 00:53:00,79.3,75.6,30.04,SSW,196,0.0,0.0,88,0.00,,,0.00,meteohub,2013-08-11 05:53:00,
2013-08-11 00:59:00,79.3,75.6,30.04,SSW,196,0.0,0.0,88,0.00,,,0.00,meteohub,2013-08-11 05:59:00,
2013-08-11 01:04:00,79.2,75.6,30.04,SSW,196,0.0,0.0,89,0.00,,,0.00,meteohub,2013-08-11 06:04:00,
2013-08-11 01:09:00,79.2,75.4,30.04,SSW,196,0.0,0.0,88,0.00,,,0.00,meteohub,2013-08-11 06:09:00,
2013-08-11 01:15:00,79.0,75.4,30.04,SSW,196,0.0,1.0,89,0.00,,,0.00,meteohub,2013-08-11 06:15:00,
2013-08-11 01:21:00,79.0,75.4,30.04,SSW,196,0.0,1.0,89,0.00,,,0.00,meteohub,2013-08-11 06:21:00,
2013-08-11 01:26:00,78.6,75.4,30.04,SSW,196,0.0,0.0,90,0.00,,,0.00,meteohub,2013-08-11 06:26:00,
2013-08-11 01:31:00,78.6,75.4,30.04,SSW,196,0.0,0.0,90,0.00,,,0.00,meteohub,2013-08-11 06:31:00,
2013-08-11 01:36:00,78.4,75.2,30.04,SSW,196,0.0,0.0,90,0.00,,,0.00,meteohub,2013-08-11 06:36:00,
2013-08-11 01:42:00,78.4,75.2,30.04,SSW,196,0.0,0.0,90,0.00,,,0.00,meteohub,2013-08-11 06:42:00,
2013-08-11 01:47:00,78.4,75.2,30.04,SSW,196,0.0,0.0,90,0.00,,,0.00,meteohub,2013-08-11 06:47:00,
2013-08-11 01:52:00,78.3,75.0,30.04,SSW,196,0.0,1.0,90,0.00,,,0.00,meteohub,2013-08-11 06:52:00,
2013-08-11 01:57:00,78.3,75.4,30.04,SSW,196,0.0,1.0,91,0.00,,,0.00,meteohub,2013-08-11 06:57:00,
2013-08-11 02:02:00,78.1,75.2,30.03,SSW,196,0.0,1.0,91,0.00,,,0.00,meteohub,2013-08-11 07:02:00,
2013-08-11 02:08:00,78.1,75.2,30.03,SSW,196,0.0,0.0,91,0.00,,,0.00,meteohub,2013-08-11 07:08:00,
2013-08-11 02:13:00,78.1,75.2,30.03,SSW,196,0.0,0.0,91,0.00,,,0.00,meteohub,2013-08-11 07:13:00,
2013-08-11 02:18:00,78.1,75.6,30.03,SSW,196,0.0,0.0,92,0.00,,,0.00,meteohub,2013-08-11 07:18:00,
2013-08-11 02:23:00,78.1,75.6,30.03,SSW,196,0.0,0.0,92,0.00,,,0.00,meteohub,2013-08-11 07:23:00,
2013-08-11 02:29:00,78.1,75.6,30.03,SSW,196,0.0,0.0,92,0.00,,,0.00,meteohub,2013-08-11 07:29:00,
2013-08-11 02:34:00,78.1,75.2,30.03,SSW,196,0.0,0.0,91,0.00,,,0.00,meteohub,2013-08-11 07:34:00,
2013-08-11 02:40:00,77.9,75.4,30.03,SSW,196,0.0,0.0,92,0.00,,,0.00,meteohub,2013-08-11 07:40:00,
2013-08-11 02:45:00,78.1,75.6,30.03,SSW,196,0.0,0.0,92,0.00,,,0.00,meteohub,2013-08-11 07:45:00,
2013-08-11 02:50:00,78.1,75.6,30.03,SSW,196,0.0,0.0,92,0.00,,,0.00,meteohub,2013-08-11 07:50:00,
2013-08-11 02:55:00,77.9,75.4,30.03,SSW,196,0.0,0.0,92,0.00,,,0.00,meteohub,2013-08-11 07:55:00,
2013-08-11 03:01:00,77.7,75.2,30.03,SSW,196,0.0,0.0,92,0.00,,,0.00,meteohub,2013-08-11 08:01:00,
2013-08-11 03:07:00,77.7,75.2,30.03,SSW,196,0.0,0.0,92,0.00,,,0.00,meteohub,2013-08-11 08:07:00,
2013-08-11 03:12:00,77.7,75.2,30.03,SSW,196,0.0,0.0,92,0.00,,,0.00,meteohub,2013-08-11 08:12:00,
2013-08-11 03:17:00,77.7,75.2,30.03,SSW,196,0.0,0.0,92,0.00,,,0.00,meteohub,2013-08-11 08:17:00,
2013-08-11 03:22:00,77.5,75.4,30.04,SSW,196,0.0,0.0,93,0.00,,,0.00,meteohub,2013-08-11 08:22:00,
2013-08-11 03:27:00,77.5,75.4,30.04,SSW,196,0.0,0.0,93,0.00,,,0.00,meteohub,2013-08-11 08:27:00,
2013-08-11 03:32:00,77.5,75.4,30.04,SSW,196,0.0,0.0,93,0.00,,,0.00,meteohub,2013-08-11 08:32:00,
2013-08-11 03:37:00,77.5,75.4,30.04,SSW,196,0.0,0.0,93,0.00,,,0.00,meteohub,2013-08-11 08:37:00,
2013-08-11 03:42:00,77.4,75.2,30.04,SSW,196,0.0,0.0,93,0.00,,,0.00,meteohub,2013-08-11 08:42:00,
2013-08-11 03:48:00,77.4,75.2,30.04,SSW,196,0.0,0.0,93,0.00,,,0.00,meteohub,2013-08-11 08:48:00,
2013-08-11 03:53:00,77.4,75.2,30.03,SSW,196,0.0,0.0,93,0.00,,,0.00,meteohub,2013-08-11 08:53:00,
2013-08-11 03:58:00,77.2,75.0,30.04,SSW,196,0.0,0.0,93,0.00,,,0.00,meteohub,2013-08-11 08:58:00,
2013-08-11 04:04:00,77.2,75.0,30.04,SSW,196,0.0,0.0,93,0.00,,,0.00,meteohub,2013-08-11 09:04:00,
2013-08-11 04:09:00,77.0,75.2,30.04,SSW,196,0.0,0.0,94,0.00,,,0.00,meteohub,2013-08-11 09:09:00,
2013-08-11 04:14:00,76.8,75.0,30.04,SSW,196,0.0,0.0,94,0.00,,,0.00,meteohub,2013-08-11 09:14:00,
2013-08-11 04:20:00,77.0,75.2,30.04,SSW,196,0.0,0.0,94,0.00,,,0.00,meteohub,2013-08-11 09:20:00,
2013-08-11 04:25:00,77.0,75.2,30.04,SSW,196,0.0,0.0,94,0.00,,,0.00,meteohub,2013-08-11 09:25:00,
2013-08-11 04:31:00,77.0,75.2,30.04,SSW,196,0.0,0.0,94,0.00,,,0.00,meteohub,2013-08-11 09:31:00,
2013-08-11 04:37:00,77.0,75.2,30.04,SSW,196,0.0,0.0,94,0.00,,,0.00,meteohub,2013-08-11 09:37:00,
2013-08-11 04:42:00,77.0,75.2,30.04,SSW,196,0.0,0.0,94,0.00,,,0.00,meteohub,2013-08-11 09:42:00,
2013-08-11 04:47:00,76.8,75.0,30.04,SSW,196,0.0,0.0,94,0.00,,,0.00,meteohub,2013-08-11 09:47:00,
2013-08-11 04:52:00,76.8,75.0,30.04,SSW,196,0.0,0.0,94,0.00,,,0.00,meteohub,2013-08-11 09:52:00,
2013-08-11 04:58:00,76.8,75.0,30.04,SSW,196,0.0,0.0,94,0.00,,,0.00,meteohub,2013-08-11 09:58:00,
2013-08-11 05:03:00,76.6,75.0,30.05,SSW,196,0.0,0.0,95,0.00,,,0.00,meteohub,2013-08-11 10:03:00,
2013-08-11 05:08:00,76.6,75.0,30.05,SSW,196,0.0,0.0,95,0.00,,,0.00,meteohub,2013-08-11 10:08:00,
2013-08-11 05:15:00,76.6,75.0,30.05,SSW,196,0.0,0.0,95,0.00,,,0.00,meteohub,2013-08-11 10:15:00,
2013-08-11 05:20:00,76.6,75.0,30.05,SSW,196,0.0,0.0,95,0.00,,,0.00,meteohub,2013-08-11 10:20:00,
2013-08-11 05:25:00,76.6,75.0,30.05,SSW,196,0.0,0.0,95,0.00,,,0.00,meteohub,2013-08-11 10:25:00,
2013-08-11 05:30:00,76.6,75.0,30.05,SSW,196,0.0,0.0,95,0.00,,,0.00,meteohub,2013-08-11 10:30:00,
2013-08-11 05:35:00,76.6,75.0,30.05,SSW,196,0.0,0.0,95,0.00,,,0.00,meteohub,2013-08-11 10:35:00,
2013-08-11 05:40:00,76.5,74.8,30.05,SSW,196,0.0,0.0,95,0.00,,,0.00,meteohub,2013-08-11 10:40:00,
2013-08-11 05:46:00,76.5,74.8,30.05,SSW,196,0.0,0.0,95,0.00,,,0.00,meteohub,2013-08-11 10:46:00,
2013-08-11 05:51:00,76.3,74.7,30.05,SSW,196,0.0,0.0,95,0.00,,,0.00,meteohub,2013-08-11 10:51:00,
2013-08-11 05:57:00,76.3,74.7,30.05,SSW,196,0.0,0.0,95,0.00,,,0.00,meteohub,2013-08-11 10:57:00,
2013-08-11 06:02:00,76.3,74.7,30.05,SSW,196,0.0,0.0,95,0.00,,,0.00,meteohub,2013-08-11 11:02:00,
2013-08-11 06:07:00,76.3,74.7,30.06,SSW,196,0.0,0.0,95,0.00,,,0.00,meteohub,2013-08-11 11:07:00,
2013-08-11 06:12:00,76.3,74.7,30.06,SSW,196,0.0,0.0,95,0.00,,,0.00,meteohub,2013-08-11 11:12:00,
2013-08-11 06:18:00,76.3,74.7,30.06,SSW,196,0.0,0.0,95,0.00,,,0.00,meteohub,2013-08-11 11:18:00,
2013-08-11 06:23:00,76.1,74.5,30.06,SSW,196,0.0,0.0,95,0.00,,,0.00,meteohub,2013-08-11 11:23:00,
2013-08-11 06:29:00,76.1,74.5,30.06,SSW,196,0.0,0.0,95,0.00,,,0.00,meteohub,2013-08-11 11:29:00,
2013-08-11 06:34:00,76.1,74.5,30.06,SSW,196,0.0,0.0,95,0.00,,,0.00,meteohub,2013-08-11 11:34:00,
2013-08-11 06:39:00,76.1,74.5,30.06,SSW,196,0.0,0.0,95,0.00,,,0.00,meteohub,2013-08-11 11:39:00,
2013-08-11 06:45:00,76.1,74.5,30.06,SSW,196,0.0,0.0,95,0.00,,,0.00,meteohub,2013-08-11 11:45:00,
2013-08-11 06:50:00,76.3,74.7,30.07,SSW,196,0.0,0.0,95,0.00,,,0.00,meteohub,2013-08-11 11:50:00,
2013-08-11 06:55:00,76.3,74.7,30.07,SSW,196,0.0,0.0,95,0.00,,,0.00,meteohub,2013-08-11 11:55:00,
2013-08-11 07:01:00,76.5,75.2,30.07,SSW,196,0.0,0.0,96,0.00,,,0.00,meteohub,2013-08-11 12:01:00,
2013-08-11 07:06:00,76.5,75.2,30.07,SSW,196,0.0,0.0,96,0.00,,,0.00,meteohub,2013-08-11 12:06:00,
2013-08-11 07:12:00,76.6,75.4,30.07,SSW,196,0.0,0.0,96,0.00,,,0.00,meteohub,2013-08-11 12:12:00,
2013-08-11 07:17:00,76.8,75.6,30.08,SSW,196,0.0,0.0,96,0.00,,,0.00,meteohub,2013-08-11 12:17:00,
2013-08-11 07:22:00,77.2,75.9,30.08,SSW,196,0.0,0.0,96,0.00,,,0.00,meteohub,2013-08-11 12:22:00,
2013-08-11 07:27:00,77.4,75.7,30.08,SSW,196,0.0,0.0,95,0.00,,,0.00,meteohub,2013-08-11 12:27:00,
2013-08-11 07:33:00,77.7,76.1,30.08,SSW,196,0.0,1.0,95,0.00,,,0.00,meteohub,2013-08-11 12:33:00,
2013-08-11 07:38:00,78.1,76.5,30.08,SSW,196,0.0,1.0,95,0.00,,,0.00,meteohub,2013-08-11 12:38:00,
2013-08-11 07:43:00,78.4,76.6,30.08,SSW,196,0.0,1.0,94,0.00,,,0.00,meteohub,2013-08-11 12:43:00,
2013-08-11 07:48:00,78.8,76.6,30.08,SSW,196,1.0,1.0,93,0.00,,,0.00,meteohub,2013-08-11 12:48:00,
2013-08-11 07:53:00,79.0,76.8,30.08,SSW,196,0.0,2.0,93,0.00,,,0.00,meteohub,2013-08-11 12:53:00,
2013-08-11 07:59:00,79.2,76.6,30.08,SSW,196,0.0,2.0,92,0.00,,,0.00,meteohub,2013-08-11 12:59:00,
2013-08-11 08:04:00,79.3,76.8,30.08,SSW,196,0.0,2.0,92,0.00,,,0.00,meteohub,2013-08-11 13:04:00,
2013-08-11 08:09:00,79.9,77.0,30.08,SSW,196,0.0,2.0,91,0.00,,,0.00,meteohub,2013-08-11 13:09:00,
2013-08-11 08:15:00,80.1,77.2,30.08,SSW,196,0.0,2.0,91,0.00,,,0.00,meteohub,2013-08-11 13:15:00,
2013-08-11 08:20:00,80.6,77.0,30.08,SSW,196,0.0,2.0,89,0.00,,,0.00,meteohub,2013-08-11 13:20:00,
2013-08-11 08:25:00,81.0,77.0,30.08,SSW,196,0.0,2.0,88,0.00,,,0.00,meteohub,2013-08-11 13:25:00,
2013-08-11 08:31:00,81.3,77.0,30.08,SSW,196,0.0,2.0,87,0.00,,,0.00,meteohub,2013-08-11 13:31:00,
2013-08-11 08:36:00,81.7,77.0,30.08,SSW,196,1.0,2.0,86,0.00,,,0.00,meteohub,2013-08-11 13:36:00,
2013-08-11 08:41:00,82.0,77.0,30.08,SSW,195,0.0,4.0,85,0.00,,,0.00,meteohub,2013-08-11 13:41:00,
2013-08-11 08:46:00,82.2,77.2,30.09,SE,126,4.0,4.0,85,0.00,,,0.00,meteohub,2013-08-11 13:46:00,
2013-08-11 08:52:00,82.8,77.4,30.09,SE,142,1.0,6.0,84,0.00,,,0.00,meteohub,2013-08-11 13:52:00,
2013-08-11 08:57:00,82.8,77.0,30.08,SE,128,1.0,8.0,83,0.00,,,0.00,meteohub,2013-08-11 13:57:00,
2013-08-11 09:02:00,83.1,77.0,30.09,ESE,119,6.0,8.0,82,0.00,,,0.00,meteohub,2013-08-11 14:02:00,
2013-08-11 09:07:00,83.5,77.4,30.09,SE,132,7.0,9.0,82,0.00,,,0.00,meteohub,2013-08-11 14:07:00,
2013-08-11 09:12:00,83.8,77.4,30.09,East,100,6.0,9.0,81,0.00,,,0.00,meteohub,2013-08-11 14:12:00,
2013-08-11 09:18:00,84.0,77.2,30.09,SE,127,6.0,9.0,80,0.00,,,0.00,meteohub,2013-08-11 14:18:00,
2013-08-11 09:23:00,84.4,77.5,30.09,ESE,118,5.0,11.0,80,0.00,,,0.00,meteohub,2013-08-11 14:23:00,
2013-08-11 09:28:00,84.6,77.7,30.09,ESE,112,4.0,11.0,80,0.00,,,0.00,meteohub,2013-08-11 14:28:00,
2013-08-11 09:33:00,84.9,77.4,30.09,SE,124,2.0,12.0,78,0.00,,,0.00,meteohub,2013-08-11 14:33:00,
2013-08-11 09:39:00,85.3,77.7,30.09,ESE,116,4.0,12.0,78,0.00,,,0.00,meteohub,2013-08-11 14:39:00,
2013-08-11 09:44:00,85.6,77.9,30.09,ESE,115,2.0,12.0,78,0.00,,,0.00,meteohub,2013-08-11 14:44:00,
2013-08-11 09:49:00,85.8,77.7,30.09,ESE,122,1.0,7.0,77,0.00,,,0.00,meteohub,2013-08-11 14:49:00,
2013-08-11 09:55:00,86.2,77.4,30.09,SE,133,4.0,7.0,75,0.00,,,0.00,meteohub,2013-08-11 14:55:00,
2013-08-11 10:00:00,86.4,77.5,30.09,SE,133,0.0,11.0,75,0.00,,,0.00,meteohub,2013-08-11 15:00:00,
2013-08-11 10:06:00,86.4,77.5,30.09,ESE,123,5.0,11.0,75,0.00,,,0.00,meteohub,2013-08-11 15:06:00,
2013-08-11 10:11:00,86.2,77.4,30.09,SE,133,2.0,7.0,75,0.00,,,0.00,meteohub,2013-08-11 15:11:00,
2013-08-11 10:16:00,85.8,77.0,30.09,SE,134,0.0,7.0,75,0.00,,,0.00,meteohub,2013-08-11 15:16:00,
2013-08-11 10:21:00,86.0,77.2,30.09,SE,133,0.0,6.0,75,0.00,,,0.00,meteohub,2013-08-11 15:21:00,
2013-08-11 10:26:00,85.8,77.4,30.09,SE,133,2.0,5.0,76,0.00,,,0.00,meteohub,2013-08-11 15:26:00,
2013-08-11 10:31:00,85.6,77.2,30.09,SE,133,0.0,4.0,76,0.00,,,0.00,meteohub,2013-08-11 15:31:00,
2013-08-11 10:37:00,85.6,77.2,30.09,SE,133,1.0,2.0,76,0.00,,,0.00,meteohub,2013-08-11 15:37:00,
2013-08-11 10:42:00,85.6,77.2,30.09,SE,133,0.0,2.0,76,0.00,,,0.00,meteohub,2013-08-11 15:42:00,
2013-08-11 10:48:00,85.5,77.0,30.09,ESE,118,2.0,2.0,76,0.00,,,0.00,meteohub,2013-08-11 15:48:00,
2013-08-11 10:53:00,85.3,77.2,30.09,ESE,118,1.0,4.0,77,0.00,,,0.00,meteohub,2013-08-11 15:53:00,
2013-08-11 10:58:00,85.1,77.5,30.09,ESE,118,0.0,4.0,78,0.00,,,0.00,meteohub,2013-08-11 15:58:00,
2013-08-11 11:04:00,85.3,77.7,30.09,ESE,118,0.0,4.0,78,0.00,,,0.00,meteohub,2013-08-11 16:04:00,
2013-08-11 11:09:00,85.5,77.7,30.09,ESE,118,0.0,2.0,78,0.00,,,0.00,meteohub,2013-08-11 16:09:00,
2013-08-11 11:14:00,85.6,78.4,30.09,ESE,118,0.0,2.0,79,0.00,,,0.00,meteohub,2013-08-11 16:14:00,
2013-08-11 11:19:00,85.8,80.1,30.09,ESE,118,1.0,2.0,83,0.00,,,0.00,meteohub,2013-08-11 16:19:00,
2013-08-11 11:24:00,85.5,79.3,30.09,East,95,2.0,2.0,82,0.01,,,0.01,meteohub,2013-08-11 16:24:00,
2013-08-11 11:29:00,83.1,76.6,30.09,East,82,1.0,4.0,81,0.01,,,0.01,meteohub,2013-08-11 16:29:00,
2013-08-11 11:34:00,81.5,76.8,30.09,East,82,0.0,5.0,86,0.04,,,0.04,meteohub,2013-08-11 16:34:00,
2013-08-11 11:39:00,80.4,76.8,30.09,East,82,0.0,5.0,89,0.05,,,0.05,meteohub,2013-08-11 16:39:00,
2013-08-11 11:45:00,80.4,78.3,30.08,East,82,1.0,5.0,93,0.06,,,0.07,meteohub,2013-08-11 16:45:00,
2013-08-11 11:50:00,80.4,78.3,30.08,East,82,0.0,3.0,93,0.08,,,0.08,meteohub,2013-08-11 16:50:00,
2013-08-11 11:55:00,80.4,78.3,30.08,East,82,2.0,3.0,93,0.09,,,0.09,meteohub,2013-08-11 16:55:00,
2013-08-11 12:00:00,80.4,78.6,30.09,East,82,0.0,3.0,94,0.09,,,0.09,meteohub,2013-08-11 17:00:00,
2013-08-11 12:05:00,80.4,78.3,30.09,East,82,0.0,3.0,93,0.10,,,0.10,meteohub,2013-08-11 17:05:00,
2013-08-11 12:10:00,80.4,78.3,30.09,East,82,1.0,3.0,93,0.11,,,0.11,meteohub,2013-08-11 17:10:00,
2013-08-11 12:16:00,80.2,78.1,30.09,East,88,0.0,3.0,93,0.11,,,0.11,meteohub,2013-08-11 17:16:00,
2013-08-11 12:21:00,80.4,78.3,30.09,East,88,0.0,3.0,93,0.10,,,0.11,meteohub,2013-08-11 17:21:00,
2013-08-11 12:26:00,80.4,78.3,30.09,East,87,0.0,3.0,93,0.09,,,0.12,meteohub,2013-08-11 17:26:00,
2013-08-11 12:32:00,80.6,78.4,30.09,East,87,0.0,0.0,93,0.08,,,0.12,meteohub,2013-08-11 17:32:00,
2013-08-11 12:37:00,80.8,78.6,30.09,East,87,0.0,1.0,93,0.08,,,0.13,meteohub,2013-08-11 17:37:00,
2013-08-11 12:42:00,81.0,78.8,30.09,East,87,0.0,1.0,93,0.07,,,0.13,meteohub,2013-08-11 17:42:00,
2013-08-11 12:47:00,81.0,78.8,30.08,East,87,0.0,2.0,93,0.06,,,0.13,meteohub,2013-08-11 17:47:00,
2013-08-11 12:52:00,81.0,78.4,30.08,East,87,2.0,2.0,92,0.06,,,0.14,meteohub,2013-08-11 17:52:00,
2013-08-11 12:57:00,81.0,78.4,30.07,East,87,1.0,3.0,92,0.05,,,0.14,meteohub,2013-08-11 17:57:00,
2013-08-11 13:02:00,80.8,78.3,30.07,East,87,1.0,3.0,92,0.04,,,0.14,meteohub,2013-08-11 18:02:00,
2013-08-11 13:08:00,81.0,78.1,30.06,East,87,0.0,3.0,91,0.05,,,0.15,meteohub,2013-08-11 18:08:00,
2013-08-11 13:13:00,81.3,78.4,30.07,East,87,0.0,3.0,91,0.04,,,0.15,meteohub,2013-08-11 18:13:00,
2013-08-11 13:18:00,81.7,78.4,30.08,East,87,0.0,3.0,90,0.04,,,0.15,meteohub,2013-08-11 18:18:00,
2013-08-11 13:24:00,81.9,78.3,30.09,SE,137,7.0,7.0,89,0.04,,,0.16,meteohub,2013-08-11 18:24:00,
2013-08-11 13:29:00,81.0,76.5,30.10,SW,226,4.0,10.0,86,0.04,,,0.16,meteohub,2013-08-11 18:29:00,
2013-08-11 13:35:00,79.2,75.6,30.09,West,279,6.0,11.0,89,0.04,,,0.16,meteohub,2013-08-11 18:35:00,
2013-08-11 13:40:00,78.3,76.1,30.09,West,272,0.0,11.0,93,0.04,,,0.17,meteohub,2013-08-11 18:40:00,
2013-08-11 13:45:00,78.1,76.3,30.09,West,261,0.0,7.0,94,0.04,,,0.17,meteohub,2013-08-11 18:45:00,
2013-08-11 13:50:00,77.7,76.1,30.10,WSW,257,0.0,7.0,95,0.03,,,0.17,meteohub,2013-08-11 18:50:00,
2013-08-11 13:56:00,77.7,76.1,30.09,WSW,257,0.0,4.0,95,0.04,,,0.18,meteohub,2013-08-11 18:56:00,
2013-08-11 14:01:00,77.5,75.9,30.10,WSW,258,0.0,2.0,95,0.03,,,0.18,meteohub,2013-08-11 19:01:00,
2013-08-11 14:06:00,77.4,76.1,30.09,WSW,258,0.0,2.0,96,0.04,,,0.19,meteohub,2013-08-11 19:06:00,
2013-08-11 14:12:00,77.2,75.6,30.08,West,259,0.0,3.0,95,0.04,,,0.19,meteohub,2013-08-11 19:12:00,
2013-08-11 14:17:00,77.2,75.9,30.08,West,259,0.0,3.0,96,0.04,,,0.19,meteohub,2013-08-11 19:17:00,
2013-08-11 14:22:00,77.2,75.9,30.09,West,259,0.0,3.0,96,0.04,,,0.20,meteohub,2013-08-11 19:22:00,
2013-08-11 14:28:00,77.2,75.9,30.10,ESE,123,8.0,8.0,96,0.04,,,0.20,meteohub,2013-08-11 19:28:00,
2013-08-11 14:33:00,76.6,75.0,30.10,East,87,2.0,11.0,95,0.04,,,0.20,meteohub,2013-08-11 19:33:00,
2013-08-11 14:38:00,75.7,73.9,30.10,East,81,3.0,16.0,94,0.04,,,0.20,meteohub,2013-08-11 19:38:00,
2013-08-11 14:43:00,75.2,73.6,30.09,East,81,0.0,16.0,95,0.03,,,0.20,meteohub,2013-08-11 19:43:00,
2013-08-11 14:48:00,75.0,73.8,30.08,SW,219,0.0,9.0,96,0.04,,,0.21,meteohub,2013-08-11 19:48:00,
2013-08-11 14:54:00,75.2,73.9,30.07,SW,219,0.0,3.0,96,0.03,,,0.21,meteohub,2013-08-11 19:54:00,
2013-08-11 14:59:00,75.4,74.5,30.06,SW,219,0.0,3.0,97,0.03,,,0.21,meteohub,2013-08-11 19:59:00,
2013-08-11 15:05:00,75.7,74.8,30.06,SW,219,0.0,2.0,97,0.03,,,0.22,meteohub,2013-08-11 20:05:00,
2013-08-11 15:11:00,75.9,75.4,30.06,SW,219,0.0,0.0,98,0.03,,,0.22,meteohub,2013-08-11 20:11:00,
2013-08-11 15:16:00,76.1,75.6,30.06,SW,219,0.0,0.0,98,0.04,,,0.23,meteohub,2013-08-11 20:16:00,
2013-08-11 15:21:00,76.5,75.9,30.06,SW,219,0.0,0.0,98,0.03,,,0.23,meteohub,2013-08-11 20:21:00,
2013-08-11 15:27:00,76.6,76.1,30.06,SW,219,0.0,0.0,98,0.03,,,0.23,meteohub,2013-08-11 20:27:00,
2013-08-11 15:32:00,76.6,76.1,30.05,SW,219,0.0,0.0,98,0.03,,,0.23,meteohub,2013-08-11 20:32:00,
2013-08-11 15:37:00,76.6,76.1,30.05,SW,219,0.0,0.0,98,0.03,,,0.23,meteohub,2013-08-11 20:37:00,
2013-08-11 15:42:00,76.6,76.1,30.05,SW,219,0.0,0.0,98,0.03,,,0.24,meteohub,2013-08-11 20:42:00,
2013-08-11 15:47:00,76.8,76.3,30.05,SW,219,0.0,0.0,98,0.03,,,0.24,meteohub,2013-08-11 20:47:00,
2013-08-11 15:52:00,77.2,76.6,30.05,SW,219,0.0,0.0,98,0.03,,,0.24,meteohub,2013-08-11 20:52:00,
2013-08-11 15:57:00,77.5,77.0,30.05,SW,219,0.0,0.0,98,0.03,,,0.24,meteohub,2013-08-11 20:57:00,
2013-08-11 16:02:00,77.5,77.0,30.05,SW,219,0.0,0.0,98,0.03,,,0.25,meteohub,2013-08-11 21:02:00,
2013-08-11 16:07:00,77.5,77.0,30.05,SW,219,0.0,0.0,98,0.03,,,0.25,meteohub,2013-08-11 21:07:00,
2013-08-11 16:12:00,77.7,77.2,30.06,SW,219,0.0,0.0,98,0.03,,,0.25,meteohub,2013-08-11 21:12:00,
2013-08-11 16:18:00,77.7,77.2,30.06,SW,219,0.0,1.0,98,0.02,,,0.25,meteohub,2013-08-11 21:18:00,
2013-08-11 16:23:00,78.1,77.5,30.06,SW,219,0.0,1.0,98,0.03,,,0.26,meteohub,2013-08-11 21:23:00,
2013-08-11 16:28:00,78.4,77.9,30.06,SW,219,0.0,1.0,98,0.03,,,0.26,meteohub,2013-08-11 21:28:00,
2013-08-11 16:33:00,78.4,77.9,30.05,SW,219,0.0,0.0,98,0.03,,,0.26,meteohub,2013-08-11 21:33:00,
2013-08-11 16:38:00,78.4,77.9,30.06,SW,219,0.0,0.0,98,0.02,,,0.26,meteohub,2013-08-11 21:38:00,
2013-08-11 16:44:00,78.6,78.1,30.05,SW,219,0.0,0.0,98,0.02,,,0.26,meteohub,2013-08-11 21:44:00,
2013-08-11 16:50:00,78.6,78.1,30.05,SW,219,0.0,0.0,98,0.02,,,0.27,meteohub,2013-08-11 21:50:00,
2013-08-11 16:55:00,79.0,78.4,30.05,SW,219,0.0,0.0,98,0.02,,,0.27,meteohub,2013-08-11 21:55:00,
2013-08-11 17:00:00,79.0,78.1,30.05,SW,219,0.0,0.0,97,0.02,,,0.27,meteohub,2013-08-11 22:00:00,
2013-08-11 17:05:00,79.2,78.3,30.05,SW,219,0.0,0.0,97,0.02,,,0.27,meteohub,2013-08-11 22:05:00,
2013-08-11 17:08:00,79.2,78.3,30.04,SW,219,0.0,0.0,97,0.02,,,0.27,meteohub,2013-08-11 22:08:00,
2013-08-11 17:17:00,79.7,78.4,30.04,SW,219,0.0,0.0,96,0.03,,,0.28,meteohub,2013-08-11 22:17:00,
2013-08-11 17:22:00,80.1,78.8,30.04,SW,219,0.0,1.0,96,0.02,,,0.28,meteohub,2013-08-11 22:22:00,
2013-08-11 17:27:00,80.4,79.2,30.04,SW,219,0.0,1.0,96,0.02,,,0.28,meteohub,2013-08-11 22:27:00,
2013-08-11 17:32:00,80.8,79.2,30.04,SW,219,0.0,0.0,95,0.02,,,0.28,meteohub,2013-08-11 22:32:00,
2013-08-11 17:37:00,80.6,79.0,30.04,SW,219,0.0,0.0,95,0.02,,,0.28,meteohub,2013-08-11 22:37:00,
2013-08-11 17:43:00,80.4,78.8,30.04,SW,219,0.0,0.0,95,0.03,,,0.29,meteohub,2013-08-11 22:43:00,
2013-08-11 17:48:00,80.4,78.8,30.04,SW,219,0.0,0.0,95,0.02,,,0.29,meteohub,2013-08-11 22:48:00,
2013-08-11 17:53:00,80.4,78.8,30.04,SW,219,0.0,0.0,95,0.02,,,0.29,meteohub,2013-08-11 22:53:00,
2013-08-11 17:58:00,80.4,78.8,30.04,SW,219,0.0,0.0,95,0.02,,,0.29,meteohub,2013-08-11 22:58:00,
2013-08-11 18:04:00,80.4,78.8,30.04,SW,219,0.0,0.0,95,0.02,,,0.29,meteohub,2013-08-11 23:04:00,
2013-08-11 18:09:00,80.8,79.2,30.04,SW,219,0.0,1.0,95,0.02,,,0.29,meteohub,2013-08-11 23:09:00,
2013-08-11 18:14:00,80.8,78.8,30.04,SW,219,0.0,1.0,94,0.01,,,0.29,meteohub,2013-08-11 23:14:00,
2013-08-11 18:20:00,80.8,78.8,30.04,SW,219,0.0,0.0,94,0.02,,,0.30,meteohub,2013-08-11 23:20:00,
2013-08-11 18:25:00,81.0,79.0,30.04,SW,219,0.0,0.0,94,0.02,,,0.30,meteohub,2013-08-11 23:25:00,
2013-08-11 18:31:00,81.0,79.0,30.04,SW,219,0.0,0.0,94,0.02,,,0.30,meteohub,2013-08-11 23:31:00,
2013-08-11 18:36:00,81.1,79.2,30.04,SW,219,0.0,0.0,94,0.02,,,0.30,meteohub,2013-08-11 23:36:00,
2013-08-11 18:41:00,81.7,79.5,30.05,SW,219,0.0,0.0,93,0.01,,,0.30,meteohub,2013-08-11 23:41:00,
2013-08-11 18:46:00,81.9,79.7,30.05,SW,219,0.0,0.0,93,0.02,,,0.31,meteohub,2013-08-11 23:46:00,
2013-08-11 18:51:00,82.2,79.7,30.05,SW,219,0.0,0.0,92,0.02,,,0.31,meteohub,2013-08-11 23:51:00,
2013-08-11 18:56:00,82.6,79.7,30.05,SW,219,0.0,0.0,91,0.02,,,0.31,meteohub,2013-08-11 23:56:00,
2013-08-11 19:01:00,83.1,80.2,30.05,SW,219,0.0,0.0,91,0.02,,,0.31,meteohub,2013-08-12 00:01:00,
2013-08-11 19:07:00,83.5,79.9,30.05,SW,219,0.0,0.0,89,0.02,,,0.31,meteohub,2013-08-12 00:07:00,
2013-08-11 19:12:00,83.3,79.0,30.05,SW,219,0.0,0.0,87,0.02,,,0.31,meteohub,2013-08-12 00:12:00,
2013-08-11 19:17:00,83.3,79.7,30.05,SW,219,0.0,0.0,89,0.01,,,0.31,meteohub,2013-08-12 00:17:00,
2013-08-11 19:22:00,83.5,79.9,30.05,SW,219,0.0,1.0,89,0.02,,,0.32,meteohub,2013-08-12 00:22:00,
2013-08-11 19:27:00,83.5,79.9,30.05,SW,219,0.0,1.0,89,0.02,,,0.32,meteohub,2013-08-12 00:27:00,
2013-08-11 19:33:00,83.5,79.5,30.05,SW,219,0.0,1.0,88,0.02,,,0.32,meteohub,2013-08-12 00:33:00,
2013-08-11 19:39:00,83.1,79.5,30.05,SW,219,0.0,0.0,89,0.02,,,0.32,meteohub,2013-08-12 00:39:00,
2013-08-11 19:44:00,82.9,79.7,30.05,SW,219,0.0,0.0,90,0.02,,,0.32,meteohub,2013-08-12 00:44:00,
2013-08-11 19:49:00,82.8,79.2,30.06,SW,219,0.0,0.0,89,0.01,,,0.32,meteohub,2013-08-12 00:49:00,
2013-08-11 19:54:00,82.2,79.0,30.06,SW,219,0.0,0.0,90,0.01,,,0.32,meteohub,2013-08-12 00:54:00,
2013-08-11 20:00:00,81.9,79.0,30.06,SW,219,0.0,0.0,91,0.01,,,0.32,meteohub,2013-08-12 01:00:00,
2013-08-11 20:05:00,81.7,78.8,30.06,SW,219,0.0,0.0,91,0.01,,,0.32,meteohub,2013-08-12 01:05:00,
2013-08-11 20:10:00,81.3,78.8,30.07,SW,219,0.0,0.0,92,0.01,,,0.32,meteohub,2013-08-12 01:10:00,
2013-08-11 20:16:00,81.1,78.6,30.07,SW,219,0.0,0.0,92,0.01,,,0.32,meteohub,2013-08-12 01:16:00,
2013-08-11 20:21:00,80.8,78.3,30.07,SW,219,0.0,0.0,92,0.00,,,0.32,meteohub,2013-08-12 01:21:00,
2013-08-11 20:27:00,80.8,78.6,30.08,SW,219,0.0,0.0,93,0.01,,,0.33,meteohub,2013-08-12 01:27:00,
2013-08-11 20:32:00,80.6,78.4,30.08,SW,219,0.0,0.0,93,0.01,,,0.33,meteohub,2013-08-12 01:32:00,
2013-08-11 20:37:00,80.4,78.3,30.08,SW,219,0.0,0.0,93,0.01,,,0.33,meteohub,2013-08-12 01:37:00,
2013-08-11 20:42:00,80.2,78.4,30.07,SW,219,0.0,0.0,94,0.01,,,0.33,meteohub,2013-08-12 01:42:00,
2013-08-11 20:47:00,80.1,78.3,30.08,SW,219,0.0,0.0,94,0.01,,,0.33,meteohub,2013-08-12 01:47:00,
2013-08-11 20:52:00,80.1,78.4,30.08,SW,219,0.0,0.0,95,0.01,,,0.33,meteohub,2013-08-12 01:52:00,
2013-08-11 20:58:00,79.9,78.1,30.08,SW,219,0.0,0.0,94,0.01,,,0.33,meteohub,2013-08-12 01:58:00,
2013-08-11 21:03:00,79.7,78.1,30.08,SW,219,0.0,0.0,95,0.01,,,0.33,meteohub,2013-08-12 02:03:00,
2013-08-11 21:09:00,79.5,77.9,30.08,SW,219,0.0,0.0,95,0.01,,,0.33,meteohub,2013-08-12 02:09:00,
2013-08-11 21:14:00,79.3,77.7,30.08,SW,219,0.0,0.0,95,0.01,,,0.33,meteohub,2013-08-12 02:14:00,
2013-08-11 21:19:00,79.2,77.5,30.08,SW,219,0.0,0.0,95,0.01,,,0.33,meteohub,2013-08-12 02:19:00,
2013-08-11 21:25:00,79.2,77.9,30.08,SW,219,0.0,0.0,96,0.00,,,0.33,meteohub,2013-08-12 02:25:00,
2013-08-11 21:31:00,79.2,77.9,30.08,SW,219,0.0,0.0,96,0.00,,,0.33,meteohub,2013-08-12 02:31:00,
2013-08-11 21:36:00,79.2,77.9,30.09,SW,219,0.0,0.0,96,0.00,,,0.33,meteohub,2013-08-12 02:36:00,
2013-08-11 21:41:00,79.0,77.7,30.08,SW,219,0.0,0.0,96,0.00,,,0.33,meteohub,2013-08-12 02:41:00,
2013-08-11 21:46:00,79.0,77.4,30.08,SW,219,0.0,0.0,95,0.00,,,0.33,meteohub,2013-08-12 02:46:00,
2013-08-11 21:52:00,78.6,77.0,30.08,SW,219,0.0,0.0,95,0.00,,,0.33,meteohub,2013-08-12 02:52:00,
2013-08-11 21:57:00,78.6,77.4,30.08,SW,219,0.0,0.0,96,0.00,,,0.33,meteohub,2013-08-12 02:57:00,
2013-08-11 22:03:00,78.6,77.4,30.08,SW,219,0.0,0.0,96,0.00,,,0.33,meteohub,2013-08-12 03:03:00,
2013-08-11 22:08:00,78.4,77.2,30.08,SW,219,0.0,0.0,96,0.00,,,0.33,meteohub,2013-08-12 03:08:00,
2013-08-11 22:13:00,78.4,77.2,30.08,SW,219,0.0,0.0,96,0.00,,,0.33,meteohub,2013-08-12 03:13:00,
2013-08-11 22:19:00,78.4,77.2,30.08,SW,219,0.0,0.0,96,0.00,,,0.33,meteohub,2013-08-12 03:19:00,
2013-08-11 22:24:00,78.3,77.0,30.08,SW,219,0.0,0.0,96,0.00,,,0.33,meteohub,2013-08-12 03:24:00,
2013-08-11 22:29:00,78.3,77.0,30.09,SW,219,0.0,0.0,96,0.00,,,0.33,meteohub,2013-08-12 03:29:00,
2013-08-11 22:34:00,78.1,76.8,30.09,SW,219,0.0,0.0,96,0.00,,,0.33,meteohub,2013-08-12 03:34:00,
2013-08-11 22:39:00,77.9,76.6,30.08,SW,219,0.0,0.0,96,0.00,,,0.33,meteohub,2013-08-12 03:39:00,
2013-08-11 22:45:00,77.9,76.6,30.08,SW,219,0.0,0.0,96,0.00,,,0.33,meteohub,2013-08-12 03:45:00,
2013-08-11 22:50:00,77.7,76.5,30.08,SW,219,0.0,2.0,96,0.00,,,0.33,meteohub,2013-08-12 03:50:00,
2013-08-11 22:55:00,77.7,76.5,30.08,SW,219,0.0,2.0,96,0.00,,,0.33,meteohub,2013-08-12 03:55:00,
2013-08-11 23:00:00,77.7,76.5,30.08,SW,219,0.0,2.0,96,0.00,,,0.33,meteohub,2013-08-12 04:00:00,
2013-08-11 23:01:00,77.7,76.5,30.08,SW,219,0.0,2.0,96,0.00,,,0.33,meteohub,2013-08-12 04:01:00,
2013-08-11 23:02:00,77.7,76.5,30.08,SW,219,0.0,2.0,96,0.00,,,0.33,meteohub,2013-08-12 04:02:00,
2013-08-11 23:04:00,77.7,76.5,30.08,SW,219,0.0,2.0,96,0.00,,,0.33,meteohub,2013-08-12 04:04:00,
2013-08-11 23:07:00,77.5,76.3,30.07,SW,219,0.0,0.0,96,0.00,,,0.33,meteohub,2013-08-12 04:07:00,
2013-08-11 23:12:00,77.5,76.3,30.07,SW,219,2.0,0.0,96,0.00,,,0.33,meteohub,2013-08-12 04:12:00,
2013-08-11 23:17:00,77.5,76.3,30.07,ESE,117,1.0,4.0,96,0.00,,,0.33,meteohub,2013-08-12 04:17:00,
2013-08-11 23:22:00,77.5,75.9,30.07,ESE,118,4.0,5.0,95,0.00,,,0.33,meteohub,2013-08-12 04:22:00,
2013-08-11 23:28:00,77.5,75.9,30.07,ESE,115,2.0,5.0,95,0.00,,,0.33,meteohub,2013-08-12 04:28:00,
2013-08-11 23:33:00,77.5,75.9,30.07,ESE,116,4.0,5.0,95,0.00,,,0.33,meteohub,2013-08-12 04:33:00,
2013-08-11 23:38:00,77.7,76.1,30.07,ESE,117,2.0,5.0,95,0.00,,,0.33,meteohub,2013-08-12 04:38:00,
2013-08-11 23:43:00,77.7,76.1,30.07,ESE,119,0.0,7.0,95,0.00,,,0.33,meteohub,2013-08-12 04:43:00,
2013-08-11 23:48:00,77.7,76.1,30.07,ESE,119,2.0,7.0,95,0.00,,,0.33,meteohub,2013-08-12 04:48:00,
2013-08-11 23:54:00,77.7,76.1,30.07,ESE,119,0.0,5.0,95,0.00,,,0.33,meteohub,2013-08-12 04:54:00,
2013-08-11 23:59:00,77.7,76.1,30.07,ESE,119,0.0,5.0,95,0.00,,,0.33,meteohub,2013-08-12 04:59:00,